COSMOS 475

Satellite information

Favourite Embed

Satellite Type and Status

PAYLOADIN ORBIT

Key statistics

Satellite COSMOS 475 at a glance.

Uptime

19491

Days in orbit

Revolutions

≈ 13.8

Per day

Orbit

LEO

Low Earth Orbit

Inclination

74.0

Latest

Satellite identification and parameters

Extended collection of information and parameters for COSMOS 475.

Object identification

Identified? True

Debris? False

Object name: COSMOS 475

International designator: 1972-009A

Object number (NORAD): 5846

Object ID (CCSDS): 5846

Country: COMMONWEALTH OF INDEPENDENT STATES (CIS)

Current information (Y/N): Y

RCS size: LARGE

Orbital parameters

Period: 104.622 minutes

Inclination: 74.0487 deg

SMA: 7354.885 km

Apoapsis: 993.754 km

Periapsis: 959.746 km

RAAN: 344.1455 deg

Eccentricy: 0.0023119

Argument of periapsis: 327.6943 deg

Mean anomaly: 144.514 deg

Mean motion: 13.76381828 rev/day

Mean motion (dot): -0.00000031 rev/day2

B* drag term: -0.0000084928 1/REarth

Two-line elements (TLE)

Creation date: July 6, 2025, 10:36 p.m.

Reference frame: TEME

Reference center: EARTH

Epoch: July 6, 2025, 9:32 p.m. UTC

TLE line 0: 0 COSMOS 475

TLE line 1: 1 5846U 72009A 25187.89778399 -.00000031 00000-0 -84928-5 0 9996

TLE line 2: 2 5846 74.0487 344.1455 0023119 327.6943 144.5140 13.76381828679830

Live tracking on map

Real-time ground track for satellite COSMOS 475.

In-orbit conjunctions

A list of the most updated potential collisions computed for object COSMOS 475.

Target Orbit TCA Probability of collision Miss distance Type
FENGYUN 1C DEB SSO 2025-06-23 01:09:44 0.0002482625 558.0 (m) DEBRIS
COSMOS 1275 DEB LEO 2024-08-08 14:04:04 0.0002002207 69.0 (m) DEBRIS

Associated space launch

The first soviet navigation system called Tsiklon consisted of Zaliv satellites in low earth orbit.

COSMOS 475 was lifted into orbit during the mission ‘Kosmos-3M | Zaliv 10’, on board a Kosmos-3M space rocket.

The launch took place on Feb. 25, 1972, 7:52 a.m. from 132/2.

For more information about the launch, click the button.

Launch to space Kosmos-3M | Zaliv 10
Kosmos-3M | Zaliv 10

Agency: N/A

Status: Launch Successful

Launch date: Feb. 25, 1972, 7:52 a.m. UTC

Rocket: Kosmos-3M

Launch pad: 132/2

Location: Plesetsk Cosmodrome, Russian Federation

...

Latest news about this satellite

There are no fresh news available about this satellite. Check back as we update our databases every day.


Newsletter sign-up

Weekly statistics, charts and insights to help you stay on top of the space industry.